FW6650 Weather Reports


Display with metric or nautical units.
time (UTC)temp
F
wind
direction
speed
MPH
gust
MPH
rain 1hr
in
rain 24hr
in
rain mn
in
humidity
%
barometer
mb
20260906022526 74 81 2.0 3.0 0.00 0.00 0.00 43 1014.6
20260906022026 75 51 0.0 3.0 0.00 0.00 0.00 43 1014.7
20260906021602 74 0 0.0 0.0 0.00 0.00 0.00 43 1014.8
20260906021026 75 0 0.0 0.0 0.00 0.00 0.00 43 1014.8
20260906020526 75 0 0.0 0.0 0.00 0.00 0.00 41 1014.8
20260906020055 75 0 0.0 3.0 0.00 0.00 0.00 43 1014.8
20260906015527 76 0 0.0 4.0 0.00 0.00 0.00 41 1014.7
20260906015026 75 0 2.0 4.0 0.00 0.00 0.00 41 1014.8
20260906014552 74 12 3.0 4.0 0.00 0.00 0.00 44 1014.8
20260906014029 75 0 0.0 4.0 0.00 0.00 0.00 42 1014.8
20260906013525 76 0 1.0 4.0 0.00 0.00 0.00 41 1014.7
20260906013045 75 0 0.0 4.0 0.00 0.00 0.00 40 1014.9
20260906012526 75 169 2.0 4.0 0.00 0.00 0.00 42 1014.7
20260906012023 74 169 1.0 4.0 0.00 0.00 0.00 41 1014.9
20260906011542 74 170 2.0 4.0 0.00 0.00 0.00 42 1015.0
20260906011030 75 167 1.0 3.0 0.00 0.00 0.00 43 1014.9
20260906010526 75 165 0.0 4.0 0.00 0.00 0.00 41 1014.9
20260906010044 74 165 1.0 4.0 0.00 0.00 0.00 45 1015.0
20260906005526 74 165 1.0 4.0 0.00 0.00 0.00 44 1015.0
20260906005026 75 0 0.0 0.0 0.00 0.00 0.00 44 1014.9
20260906004554 75 0 0.0 2.0 0.00 0.00 0.00 44 1015.0
20260906004028 76 0 0.0 2.0 0.00 0.00 0.00 42 1014.9
20260906003524 75 165 1.0 2.0 0.00 0.00 0.00 44 1015.0
20260906003047 76 0 0.0 2.0 0.00 0.00 0.00 44 1015.0
20260906002527 76 0 1.0 3.0 0.00 0.00 0.00 42 1015.0
20260906002026 75 165 0.0 4.0 0.00 0.00 0.00 42 1014.9
20260906001544 75 165 2.0 4.0 0.00 0.00 0.00 45 1014.9
20260906001026 75 165 1.0 4.0 0.00 0.00 0.00 45 1015.0
20260906000526 75 165 1.0 4.0 0.00 0.00 0.00 45 1015.0
20260906000040 75 165 3.0 4.0 0.00 0.00 0.00 44 1015.1
20260905235527 76 166 0.0 2.0 0.00 0.00 0.00 43 1015.1
20260905235031 76 0 0.0 0.0 0.00 0.00 0.00 42 1015.1
20260905234549 77 0 0.0 2.0 0.00 0.00 0.00 40 1015.1
20260905234032 78 0 0.0 2.0 0.00 0.00 0.00 40 1015.2
20260905233527 77 0 0.0 4.0 0.00 0.00 0.00 40 1015.2
20260905233044 77 0 0.0 4.0 0.00 0.00 0.00 41 1015.3
20260905232529 76 167 3.0 4.0 0.00 0.00 0.00 41 1015.3
20260905232028 76 168 1.0 4.0 0.00 0.00 0.00 42 1015.4
20260905231542 76 168 1.0 4.0 0.00 0.00 0.00 42 1015.5
20260905231027 76 168 1.0 4.0 0.00 0.00 0.00 41 1015.5
20260905230529 76 0 1.0 4.0 0.00 0.00 0.00 41 1015.5
20260905230053 77 168 1.0 5.0 0.00 0.00 0.00 41 1015.6
20260905225527 76 168 2.0 5.0 0.00 0.00 0.00 41 1015.6
20260905225027 76 169 2.0 5.0 0.00 0.00 0.00 41 1015.6
20260905224549 76 178 1.0 4.0 0.00 0.00 0.00 41 1015.7
20260905224027 76 178 2.0 6.0 0.00 0.00 0.00 40 1015.7
20260905223526 76 180 2.0 6.0 0.00 0.00 0.00 40 1015.7
20260905223050 76 164 4.0 6.0 0.00 0.00 0.00 40 1015.7
20260905222526 77 181 2.0 8.0 0.00 0.00 0.00 38 1015.7
20260905222032 78 304 2.0 8.0 0.00 0.00 0.00 38 1015.6
20260905221548 78 0 0.0 3.0 0.00 0.00 0.00 39 1015.7
20260905221026 78 30 0.0 3.0 0.00 0.00 0.00 39 1015.6
20260905220526 78 35 0.0 3.0 0.00 0.00 0.00 38 1015.6
20260905220043 78 0 1.0 3.0 0.00 0.00 0.00 40 1015.6
20260905215526 78 69 2.0 3.0 0.00 0.00 0.00 39 1015.6
20260905215025 77 69 1.0 2.0 0.00 0.00 0.00 41 1015.6
20260905214547 77 0 1.0 2.0 0.00 0.00 0.00 40 1015.7
20260905214026 77 69 1.0 2.0 0.00 0.00 0.00 40 1015.6
20260905213526 78 0 0.0 0.0 0.00 0.00 0.00 39 1015.6
20260905213041 78 0 0.0 2.0 0.00 0.00 0.00 39 1015.7
20260905212527 79 0 0.0 2.0 0.00 0.00 0.00 38 1015.7
20260905212027 79 66 0.0 2.0 0.00 0.00 0.00 37 1015.7
20260905211548 79 67 1.0 3.0 0.00 0.00 0.00 37 1015.8
20260905211027 79 0 0.0 4.0 0.00 0.00 0.00 37 1015.8
20260905210527 79 0 1.0 4.0 0.00 0.00 0.00 37 1015.8
20260905210100 79 74 2.0 4.0 0.00 0.00 0.00 37 1015.8
20260905205526 79 75 0.0 4.0 0.00 0.00 0.00 36 1015.8
20260905205024 80 74 2.0 4.0 0.00 0.00 0.00 36 1015.8
20260905204542 80 360 0.0 2.0 0.00 0.00 0.00 36 1015.9
20260905204026 80 0 0.0 2.0 0.00 0.00 0.00 35 1015.7
20260905203528 80 360 0.0 6.0 0.00 0.00 0.00 36 1015.8
20260905203045 80 360 2.0 6.0 0.00 0.00 0.00 35 1015.6
20260905202526 80 360 0.0 2.0 0.00 0.00 0.00 35 1015.6
20260905202026 80 0 0.0 0.0 0.00 0.00 0.00 36 1015.7
20260905201540 80 0 0.0 6.0 0.00 0.00 0.00 35 1015.7
20260905201029 81 0 1.0 6.0 0.00 0.00 0.00 35 1015.7
20260905200525 81 360 2.0 5.0 0.00 0.00 0.00 34 1015.7
20260905200052 81 360 2.0 6.0 0.00 0.00 0.00 35 1015.7
20260905195529 81 360 2.0 10.0 0.00 0.00 0.00 35 1015.7
20260905195028 81 360 5.0 10.0 0.00 0.00 0.00 35 1015.7
20260905194548 80 360 5.0 8.0 0.00 0.00 0.00 36 1015.8
20260905194026 80 360 5.0 8.0 0.00 0.00 0.00 37 1015.7
20260905193526 80 360 4.0 5.0 0.00 0.00 0.00 37 1015.7
20260905193044 80 360 3.0 5.0 0.00 0.00 0.00 38 1015.7
20260905192526 80 360 3.0 5.0 0.00 0.00 0.00 38 1015.8
20260905192032 80 360 3.0 4.0 0.00 0.00 0.00 38 1015.8
20260905191542 80 360 2.0 4.0 0.00 0.00 0.00 38 1015.7
20260905191025 80 360 2.0 5.0 0.00 0.00 0.00 38 1015.8
20260905190527 81 360 2.0 5.0 0.00 0.00 0.00 38 1015.8
20260905190041 81 360 2.0 5.0 0.00 0.00 0.00 38 1015.9
20260905185527 81 360 2.0 5.0 0.00 0.00 0.00 38 1015.9
20260905185026 81 360 1.0 4.0 0.00 0.00 0.00 38 1015.8
20260905184553 81 360 1.0 2.0 0.00 0.00 0.00 38 1015.9
20260905184026 81 0 1.0 3.0 0.00 0.00 0.00 38 1015.9
20260905183525 81 360 0.0 3.0 0.00 0.00 0.00 38 1015.8
20260905183047 81 360 0.0 4.0 0.00 0.00 0.00 38 1015.7
20260905182525 81 0 1.0 5.0 0.00 0.00 0.00 37 1015.7
20260905182026 81 360 1.0 5.0 0.00 0.00 0.00 37 1015.5
20260905181549 81 360 3.0 5.0 0.00 0.00 0.00 37 1015.5
20260905181027 81 360 2.0 5.0 0.00 0.00 0.00 37 1015.5
20260905180527 81 360 2.0 6.0 0.00 0.00 0.00 37 1015.5
20260905180048 82 360 3.0 6.0 0.00 0.00 0.00 37 1015.4
20260905175526 82 360 1.0 5.0 0.00 0.00 0.00 37 1015.5
20260905175026 82 360 1.0 5.0 0.00 0.00 0.00 37 1015.5
20260905174545 82 360 2.0 5.0 0.00 0.00 0.00 37 1015.4
20260905174026 82 360 3.0 5.0 0.00 0.00 0.00 37 1015.5
20260905173525 82 360 3.0 5.0 0.00 0.00 0.00 37 1015.4
20260905173041 82 360 1.0 5.0 0.00 0.00 0.00 37 1015.4
20260905172524 82 360 2.0 6.0 0.00 0.00 0.00 37 1015.3
20260905172024 82 360 3.0 9.0 0.00 0.00 0.00 37 1015.2
20260905171559 82 360 4.0 11.0 0.00 0.00 0.00 37 1015.1
20260905171024 83 360 4.0 11.0 0.00 0.00 0.00 37 1015.1
20260905170524 83 360 6.0 11.0 0.00 0.00 0.00 37 1015.1
20260905170040 83 360 5.0 10.0 0.00 0.00 0.00 37 1015.2
20260905165524 83 360 4.0 10.0 0.00 0.00 0.00 37 1015.1
20260905165026 83 360 4.0 10.0 0.00 0.00 0.00 37 1015.2
20260905164541 84 360 4.0 10.0 0.00 0.00 0.00 37 1015.2
20260905164026 84 352 4.0 9.0 0.00 0.00 0.00 37 1015.2
20260905163525 84 30 2.0 8.0 0.00 0.00 0.00 37 1015.2
20260905163047 84 18 4.0 8.0 0.00 0.00 0.00 37 1015.2
20260905162526 84 13 3.0 9.0 0.00 0.00 0.00 36 1015.1
20260905162024 85 352 3.0 10.0 0.00 0.00 0.00 36 1015.2
20260905161543 85 36 4.0 12.0 0.00 0.00 0.00 35 1015.2
20260905161030 85 62 4.0 12.0 0.00 0.00 0.00 35 1015.1
20260905160531 85 5 7.0 13.0 0.00 0.00 0.00 34 1015.1
20260905160050 85 49 7.0 13.0 0.00 0.00 0.00 34 1015.1
20260905155528 86 335 6.0 12.0 0.00 0.00 0.00 35 1015.1
20260905155031 86 342 6.0 12.0 0.00 0.00 0.00 35 1015.1
20260905154554 86 333 4.0 13.0 0.00 0.00 0.00 35 1015.1
20260905154027 86 344 7.0 16.0 0.00 0.00 0.00 34 1015.2
20260905153527 86 337 9.0 16.0 0.00 0.00 0.00 34 1015.2
20260905153044 87 342 6.0 18.0 0.00 0.00 0.00 33 1015.2
20260905152528 87 309 11.0 18.0 0.00 0.00 0.00 32 1015.2
20260905152025 87 342 7.0 13.0 0.00 0.00 0.00 33 1015.1
20260905151543 87 360 6.0 17.0 0.00 0.00 0.00 35 1015.1
20260905151029 87 336 9.0 17.0 0.00 0.00 0.00 33 1015.1
20260905150527 87 32 10.0 17.0 0.00 0.00 0.00 33 1015.0
20260905150051 87 324 9.0 16.0 0.00 0.00 0.00 33 1015.1
20260905145526 87 45 8.0 17.0 0.00 0.00 0.00 34 1015.1
20260905145027 87 333 8.0 17.0 0.00 0.00 0.00 34 1015.0
20260905144552 87 61 5.0 13.0 0.00 0.00 0.00 35 1015.0
20260905144025 87 50 5.0 13.0 0.00 0.00 0.00 34 1015.0
20260905143525 87 13 6.0 13.0 0.00 0.00 0.00 35 1015.0
20260905143044 87 355 7.0 13.0 0.00 0.00 0.00 34 1015.0
20260905142527 87 13 4.0 14.0 0.00 0.00 0.00 35 1015.0
20260905142031 87 319 8.0 14.0 0.00 0.00 0.00 34 1015.0
20260905141547 87 36 5.0 15.0 0.00 0.00 0.00 34 1015.1
20260905141025 87 338 8.0 15.0 0.00 0.00 0.00 35 1015.0
20260905140524 87 11 6.0 16.0 0.00 0.00 0.00 35 1015.1
20260905140046 87 339 8.0 17.0 0.00 0.00 0.00 34 1015.0
20260905135528 87 39 8.0 17.0 0.00 0.00 0.00 34 1015.0
20260905135028 87 337 9.0 17.0 0.00 0.00 0.00 34 1015.0
20260905134549 87 14 7.0 18.0 0.00 0.00 0.00 35 1015.1
20260905134025 87 344 3.0 18.0 0.00 0.00 0.00 34 1015.1
20260905133526 87 5 9.0 18.0 0.00 0.00 0.00 34 1015.3
20260905133050 87 355 5.0 16.0 0.00 0.00 0.00 34 1015.3
20260905132525 87 350 6.0 15.0 0.00 0.00 0.00 34 1015.3
20260905132027 88 40 6.0 15.0 0.00 0.00 0.00 34 1015.4
20260905131546 88 338 6.0 14.0 0.00 0.00 0.00 34 1015.3
20260905131025 87 31 6.0 19.0 0.00 0.00 0.00 35 1015.3
20260905130523 87 32 9.0 19.0 0.00 0.00 0.00 35 1015.4
20260905130040 88 355 6.0 15.0 0.00 0.00 0.00 35 1015.4
20260905125528 87 5 6.0 18.0 0.00 0.00 0.00 35 1015.5
20260905125027 87 11 10.0 18.0 0.00 0.00 0.00 35 1015.5
20260905124548 87 355 9.0 17.0 0.00 0.00 0.00 34 1015.5
20260905124028 88 28 7.0 20.0 0.00 0.00 0.00 34 1015.6
20260905123525 87 346 10.0 20.0 0.00 0.00 0.00 34 1015.7
20260905123048 87 12 9.0 18.0 0.00 0.00 0.00 35 1015.6
20260905122530 87 5 10.0 18.0 0.00 0.00 0.00 35 1015.7
20260905122027 87 5 7.0 17.0 0.00 0.00 0.00 35 1015.7
20260905121544 87 345 9.0 17.0 0.00 0.00 0.00 35 1015.7
20260905121027 88 360 8.0 17.0 0.00 0.00 0.00 35 1015.8
20260905120527 87 342 7.0 15.0 0.00 0.00 0.00 36 1015.7
20260905120044 87 290 9.0 16.0 0.00 0.00 0.00 35 1015.9
20260905115527 87 24 11.0 18.0 0.00 0.00 0.00 35 1015.9
20260905115027 87 25 8.0 18.0 0.00 0.00 0.00 35 1015.9
20260905114605 87 326 10.0 20.0 0.00 0.00 0.00 35 1016.0
20260905114027 87 40 11.0 20.0 0.00 0.00 0.00 35 1015.9
20260905113531 87 42 9.0 20.0 0.00 0.00 0.00 35 1015.9
20260905113043 87 350 10.0 20.0 0.00 0.00 0.00 35 1016.0
20260905112527 87 27 11.0 19.0 0.00 0.00 0.00 35 1016.1
20260905112026 87 32 11.0 19.0 0.00 0.00 0.00 35 1016.0
20260905111542 87 344 10.0 22.0 0.00 0.00 0.00 36 1016.0
20260905111024 87 360 12.0 22.0 0.00 0.00 0.00 35 1016.1
20260905110526 87 331 11.0 20.0 0.00 0.00 0.00 36 1016.0
20260905110042 86 327 8.0 16.0 0.00 0.00 0.00 34 1016.0
20260905105527 86 335 7.0 18.0 0.00 0.00 0.00 36 1016.1
20260905105026 86 5 11.0 20.0 0.00 0.00 0.00 35 1016.2
20260905104551 86 360 8.0 20.0 0.00 0.00 0.00 35 1016.1
20260905104028 86 35 11.0 22.0 0.00 0.00 0.00 35 1016.0
20260905103527 86 44 13.0 22.0 0.00 0.00 0.00 34 1015.9
20260905103048 86 28 10.0 22.0 0.00 0.00 0.00 34 1016.0
20260905102526 86 54 10.0 22.0 0.00 0.00 0.00 34 1016.0
20260905102026 86 360 13.0 22.0 0.00 0.00 0.00 35 1015.9
20260905101543 86 49 12.0 22.0 0.00 0.00 0.00 36 1015.9
20260905101026 86 18 13.0 22.0 0.00 0.00 0.00 36 1015.9
20260905100526 85 28 12.0 21.0 0.00 0.00 0.00 36 1015.9
20260905100042 85 343 13.0 21.0 0.00 0.00 0.00 36 1016.1
20260905095526 85 38 13.0 23.0 0.00 0.00 0.00 37 1015.9
20260905095026 85 55 12.0 23.0 0.00 0.00 0.00 36 1016.0
20260905094558 85 13 12.0 22.0 0.00 0.00 0.00 36 1016.0
20260905094026 86 21 12.0 22.0 0.00 0.00 0.00 35 1015.9
20260905093527 86 51 12.0 22.0 0.00 0.00 0.00 36 1016.0
20260905093046 86 343 10.0 21.0 0.00 0.00 0.00 35 1016.1
20260905092526 85 330 12.0 21.0 0.00 0.00 0.00 36 1016.1
20260905092026 85 355 11.0 22.0 0.00 0.00 0.00 35 1016.1
20260905091546 85 333 10.0 22.0 0.00 0.00 0.00 36 1016.1
20260905091027 85 58 8.0 23.0 0.00 0.00 0.00 37 1016.2
20260905090526 84 30 12.0 23.0 0.00 0.00 0.00 37 1016.2
20260905090047 84 317 11.0 23.0 0.00 0.00 0.00 36 1016.1
20260905085524 84 42 11.0 25.0 0.00 0.00 0.00 37 1016.1
20260905085030 85 344 12.0 25.0 0.00 0.00 0.00 36 1016.1
20260905084546 84 340 13.0 24.0 0.00 0.00 0.00 35 1016.1
20260905084027 84 341 10.0 23.0 0.00 0.00 0.00 35 1016.2
20260905083526 84 55 13.0 25.0 0.00 0.00 0.00 35 1016.2
20260905083041 84 342 11.0 25.0 0.00 0.00 0.00 36 1016.1
20260905082526 84 309 13.0 22.0 0.00 0.00 0.00 37 1016.2
20260905082026 84 327 14.0 22.0 0.00 0.00 0.00 38 1016.1
20260905081559 84 360 9.0 21.0 0.00 0.00 0.00 38 1016.1
20260905081026 83 9 9.0 25.0 0.00 0.00 0.00 39 1016.2
20260905080526 83 19 9.0 25.0 0.00 0.00 0.00 39 1016.1
20260905080056 83 5 10.0 24.0 0.00 0.00 0.00 39 1016.1
20260905075527 83 360 9.0 21.0 0.00 0.00 0.00 39 1016.1
20260905075029 83 360 8.0 18.0 0.00 0.00 0.00 39 1016.2
20260905074544 83 340 7.0 16.0 0.00 0.00 0.00 40 1016.1
20260905074026 83 38 5.0 17.0 0.00 0.00 0.00 40 1016.2
20260905073526 82 342 9.0 18.0 0.00 0.00 0.00 40 1016.2
20260905073048 82 360 9.0 18.0 0.00 0.00 0.00 40 1016.0
20260905072527 82 19 8.0 18.0 0.00 0.00 0.00 40 1015.9
20260905072028 82 24 6.0 15.0 0.00 0.00 0.00 41 1015.9
20260905071557 81 24 8.0 15.0 0.00 0.00 0.00 43 1015.9
20260905071025 81 15 7.0 20.0 0.00 0.00 0.00 42 1015.9
20260905070530 81 5 8.0 20.0 0.00 0.00 0.00 43 1015.9
20260905070051 81 10 11.0 20.0 0.00 0.00 0.00 44 1016.0
20260905065526 80 19 9.0 15.0 0.00 0.00 0.00 44 1016.0
20260905065029 80 36 4.0 10.0 0.00 0.00 0.00 46 1016.2
20260905064552 80 342 3.0 11.0 0.00 0.00 0.00 46 1016.1
20260905064027 80 78 3.0 11.0 0.00 0.00 0.00 47 1016.1
20260905063526 80 339 3.0 16.0 0.00 0.00 0.00 46 1016.1
20260905063044 79 64 5.0 16.0 0.00 0.00 0.00 47 1016.1
20260905062528 79 311 9.0 19.0 0.00 0.00 0.00 46 1016.0
20260905062027 79 13 8.0 19.0 0.00 0.00 0.00 47 1016.0
20260905061604 79 355 10.0 19.0 0.00 0.00 0.00 48 1015.9
20260905061027 79 17 9.0 14.0 0.00 0.00 0.00 48 1015.9
20260905060527 79 9 8.0 19.0 0.00 0.00 0.00 48 1015.8
20260905060053 79 336 10.0 19.0 0.00 0.00 0.00 48 1015.7
20260905055525 78 17 9.0 16.0 0.00 0.00 0.00 49 1015.7
20260905055026 78 360 8.0 16.0 0.00 0.00 0.00 49 1015.7
20260905054550 78 360 7.0 14.0 0.00 0.00 0.00 50 1015.7
20260905054026 78 360 7.0 15.0 0.00 0.00 0.00 50 1015.7
20260905053527 78 360 6.0 15.0 0.00 0.00 0.00 50 1015.7
20260905053050 77 351 9.0 15.0 0.00 0.00 0.00 50 1015.6
20260905052526 77 351 10.0 15.0 0.00 0.00 0.00 51 1015.7
20260905052026 77 338 9.0 13.0 0.00 0.00 0.00 51 1015.7
20260905051543 77 338 7.0 13.0 0.00 0.00 0.00 52 1015.6
20260905051026 77 40 5.0 12.0 0.00 0.00 0.00 52 1015.7
20260905050529 77 5 5.0 14.0 0.00 0.00 0.00 52 1015.7
20260905050044 76 350 4.0 14.0 0.00 0.00 0.00 52 1015.7
20260905045526 76 5 5.0 12.0 0.00 0.00 0.00 52 1015.6
20260905045026 76 360 3.0 6.0 0.00 0.00 0.00 53 1015.7
20260905044549 76 360 4.0 6.0 0.00 0.00 0.00 52 1015.6
20260905044023 76 360 2.0 6.0 0.00 0.00 0.00 52 1015.6
20260905043530 76 360 2.0 6.0 0.00 0.00 0.00 53 1015.5
20260905043108 76 360 2.0 6.0 0.00 0.00 0.00 53 1015.5
20260905042529 76 360 3.0 7.0 0.00 0.00 0.00 53 1015.5
20260905042026 76 39 3.0 10.0 0.00 0.00 0.00 54 1015.3
20260905041540 76 11 3.0 10.0 0.00 0.00 0.00 54 1015.2
20260905041027 76 11 4.0 10.0 0.00 0.00 0.00 54 1015.1
20260905040529 76 20 4.0 13.0 0.00 0.00 0.00 54 1015.1
20260905040111 76 17 6.0 13.0 0.00 0.00 0.00 54 1015.0
20260905035526 76 30 5.0 11.0 0.00 0.00 0.00 54 1015.0
20260905035026 76 11 5.0 12.0 0.00 0.00 0.00 54 1015.0
20260905034540 76 360 7.0 13.0 0.00 0.00 0.00 54 1014.9
20260905034027 76 348 6.0 13.0 0.00 0.00 0.00 55 1014.9
20260905033526 76 360 7.0 13.0 0.00 0.00 0.00 55 1014.8
20260905033042 76 17 7.0 13.0 0.00 0.00 0.00 55 1014.9
20260905032531 76 23 8.0 13.0 0.00 0.00 0.00 55 1014.8
20260905032026 76 342 4.0 8.0 0.00 0.00 0.00 55 1014.9
20260905031541 76 348 3.0 6.0 0.00 0.00 0.00 56 1015.0
20260905031025 76 360 3.0 8.0 0.00 0.00 0.00 56 1015.0
20260905030528 75 53 4.0 8.0 0.00 0.00 0.00 56 1014.9
20260905030045 75 28 3.0 8.0 0.00 0.00 0.00 57 1014.9
20260905025526 75 28 4.0 10.0 0.00 0.00 0.00 57 1015.0
20260905025026 75 27 3.0 10.0 0.00 0.00 0.00 57 1014.9
20260905024543 75 360 5.0 10.0 0.00 0.00 0.00 58 1014.9
20260905024030 75 344 5.0 8.0 0.00 0.00 0.00 58 1014.9
20260905023526 75 342 3.0 8.0 0.00 0.00 0.00 58 1014.9
20260905023044 76 11 4.0 8.0 0.00 0.00 0.00 58 1015.0